COSMOS 2454 [-] (35635 NORAD) Tracking and Keplerian Element Data

This shows tracking and keplerian element data for the satellite.

Feedback or suggestion? Click here.




ElementValue
Catalog35635
NameCOSMOS 2454 [-]
Epoch Orbit45600
Epoch Day198.84276096
Epoch Year2018
RAAN58.7495
Inclination82.9553
Eccentricity0.0017876
Argument of Perigee250.3537
Mean Anonmoly109.5702
Mean Motion13.89628808
Decay Rate4.7E-07
L11 35635U 09039A 18198.84276096 .00000047 00000-0 25859-4 0 9996
L22 35635 82.9553 58.7495 0017876 250.3537 109.5702 13.89628808456000

Live tracking and technical data element details for COSMOS 2454 [-] (NORAD 35635). COSMOS 2454 [-] can be tracked NOW for your location showing map with azimuth and elevation plus other details from your city location.

Track the satellite on the map from your city or location and see movement details for azimuth, elevation, latitude, longitude, range, height, and movement on the map or in text.







IsCatalogInMostPopularTable: catalog: 35635, numindb: 34
Update: records affected: 1



GetName: 35635 COSMOS 2454 [-]

Hit Count: updated at: Wed, 18 Jul 2018 20:31:11 GMT